This is the latest recevied weather packets stored in our database for station/object EPGD. If no packets are shown the sender has not sent any weather packets the latest 10 day(s).
| Time | Temp. | Humidity | Pressure | Rain* | Wind** | Luminosity | Snow |
|---|---|---|---|---|---|---|---|
| 1777478704 | 5.56° C | 41% | 1030 hPa | - | - | - | - |
| 1777476904 | 5.56° C | 38% | 1030 hPa | - | - | - | - |
| 1777475104 | 6.67° C | 42% | 1030 hPa | - | - | - | - |
| 1777473304 | 6.67° C | 45% | 1030 hPa | - | - | - | - |
| 1777471504 | 6.67° C | 42% | 1030 hPa | - | - | - | - |
| 1777469704 | 6.67° C | 45% | 1030 hPa | - | - | - | - |
| 1777467904 | 6.67° C | 42% | 1030 hPa | - | - | - | - |
| 1777466104 | 6.67° C | 45% | 1030 hPa | - | - | - | - |
| 1777464304 | 6.67° C | 45% | 1029 hPa | - | - | - | - |
| 1777462504 | 6.67° C | 45% | 1030 hPa | - | - | - | - |
| 1777460704 | 6.67° C | 45% | 1030 hPa | - | - | - | - |
| 1777458904 | 6.67° C | 45% | 1030 hPa | - | - | - | - |
| 1777457104 | 7.78° C | 45% | 1030 hPa | - | - | - | - |
| 1777455304 | 6.67° C | 48% | 1030 hPa | - | - | - | - |
| 1777453504 | 6.67° C | 45% | 1030 hPa | - | - | - | - |
| 1777451704 | 6.67° C | 45% | 1030 hPa | - | - | - | - |
| 1777449904 | 5.56° C | 48% | 1029 hPa | - | - | - | - |
| 1777448104 | 6.67° C | 52% | 1029 hPa | - | - | - | - |
| 1777446304 | 5.56° C | 52% | 1029 hPa | - | - | - | - |
| 1777444504 | 5.56° C | 56% | 1029 hPa | - | - | - | - |
| 1777442704 | 3.89° C | 75% | 1029 hPa | - | - | - | - |
| 1777440904 | 2.78° C | 80% | 1028 hPa | - | - | - | - |
| 1777439104 | 0.56° C | 80% | 1028 hPa | - | - | - | - |
| 1777437303 | 0° C | 86% | 1028 hPa | - | - | - | - |
| 1777435504 | -2.22° C | 92% | 1028 hPa | - | - | - | - |
* Rain since midnight (hover to see other rain measurements)
** Current wind speed in m/s (hover to see current wind gust speed)